Terminal Aerodrome Forecast
Issued by NWS Wilmington, OH

Current Version | Previous Version | Graphics & Text | Print | Product List | Glossary On
Versions: 1 2 3 4 5 6 7 8 9 10 11 12 13 14
000
FTUS41 KILN 151300 AAA
TAFCMH
TAF AMD
KCMH 151341Z 1514/1612 32014G22KT P6SM OVC015
     FM151700 31014G22KT P6SM BKN025
     FM151900 31012G20KT P6SM BKN040
     FM160100 VRB03KT P6SM SKC=

USA.gov is the U.S. government's official web portal to all federal, state and local government web resources and services.